FW1790 Weather Reports


time (UTC)temp
F
wind
direction
speed
knots
gust
knots
rain 1hr
in
rain 24hr
in
rain mn
in
humidity
%
barometer
mb
20260505112221 55 167 3.5 4.3 0.00 0.00 0.00 69 1009.0
20260505111720 55 172 3.5 5.2 0.00 0.00 0.00 70 1009.0
20260505111220 55 162 5.2 7.0 0.00 0.00 0.00 70 1009.0
20260505110720 55 173 4.3 6.1 0.00 0.00 0.00 70 1009.0
20260505110221 56 159 4.3 6.1 0.00 0.00 0.00 70 1009.0
20260505102220 56 153 5.2 6.1 0.00 0.00 0.00 63 1009.0
20260505101720 56 163 3.5 5.2 0.00 0.00 0.00 63 1009.0
20260505101220 56 171 3.5 5.2 0.00 0.00 0.00 64 1009.0
20260505100720 56 168 3.5 4.3 0.00 0.00 0.00 65 1009.0
20260505100221 56 159 4.3 5.2 0.00 0.00 0.00 64 1009.0
20260505095721 56 159 4.3 6.1 0.00 0.00 0.00 64 1009.0
20260505095221 56 143 5.2 7.0 0.00 0.00 0.00 65 1009.0
20260505094721 56 147 4.3 6.1 0.00 0.00 0.00 67 1009.0
20260505094221 56 146 3.5 4.3 0.00 0.00 0.00 67 1009.0
20260505093720 56 138 2.6 3.5 0.00 0.00 0.00 67 1009.0
20260505093222 56 149 3.5 4.3 0.00 0.00 0.00 65 1009.0
20260505092720 56 154 2.6 5.2 0.00 0.00 0.00 64 1009.0
20260505092220 56 139 2.6 4.3 0.00 0.00 0.00 64 1009.0
20260505091721 56 137 3.5 5.2 0.00 0.00 0.00 63 1009.0
20260505091220 56 149 4.3 7.0 0.00 0.00 0.00 61 1009.0
20260505090720 56 161 1.7 3.5 0.00 0.00 0.00 62 1009.0
20260505090221 56 179 4.3 7.0 0.00 0.00 0.00 63 1009.0
20260505085720 56 175 5.2 6.1 0.00 0.00 0.00 66 1009.0
20260505085220 56 181 3.5 6.1 0.00 0.00 0.00 66 1009.0
20260505084721 56 199 3.5 4.3 0.00 0.00 0.00 65 1009.0
20260505084221 56 146 3.5 5.2 0.00 0.00 0.00 66 1009.0
20260505083720 56 171 3.5 5.2 0.00 0.00 0.00 66 1009.0
20260505083220 56 168 3.5 5.2 0.00 0.00 0.00 66 1009.0
20260505082721 56 138 3.5 5.2 0.00 0.00 0.00 66 1009.0
20260505082220 56 157 2.6 3.5 0.00 0.00 0.00 66 1009.0
20260505081726 56 148 3.5 6.1 0.00 0.00 0.00 66 1009.0
20260505081220 56 145 2.6 4.3 0.00 0.00 0.00 65 1009.0
20260505080721 56 158 5.2 7.8 0.00 0.00 0.00 65 1009.0
20260505080222 56 140 4.3 7.8 0.00 0.00 0.00 65 1009.0
20260505075721 56 163 4.3 7.0 0.00 0.00 0.00 65 1009.0
20260505075222 56 154 4.3 6.1 0.00 0.00 0.00 65 1009.0
20260505074722 56 169 2.6 4.3 0.00 0.00 0.00 63 1010.0
20260505074220 56 182 4.3 6.1 0.00 0.00 0.00 62 1009.0
20260505073722 56 166 3.5 5.2 0.00 0.00 0.00 62 1009.0
20260505073220 56 185 7.8 9.6 0.00 0.00 0.00 60 1009.0
20260505072720 56 175 3.5 7.0 0.00 0.00 0.00 59 1010.0
20260505072221 56 170 5.2 7.0 0.00 0.00 0.00 57 1010.0
20260505071720 56 180 7.0 9.6 0.00 0.00 0.00 58 1010.0
20260505071221 57 163 6.1 7.8 0.00 0.00 0.00 59 1010.0
20260505070720 57 155 7.0 8.7 0.00 0.00 0.00 59 1010.0
20260505070221 57 166 6.1 9.6 0.00 0.00 0.00 55 1009.0
20260505065720 57 158 7.8 9.6 0.00 0.00 0.00 54 1009.0
20260505065221 57 154 7.0 9.6 0.00 0.00 0.00 54 1010.0
20260505064720 57 172 7.0 9.6 0.00 0.00 0.00 55 1010.0
20260505064220 56 179 6.1 10.4 0.00 0.00 0.00 55 1010.0
20260505063721 56 155 7.8 11.3 0.00 0.00 0.00 57 1010.0
20260505063221 56 143 2.6 5.2 0.00 0.00 0.00 57 1010.0
20260505062720 56 144 3.5 6.1 0.00 0.00 0.00 57 1010.0
20260505062222 56 157 4.3 6.1 0.00 0.00 0.00 57 1010.0
20260505061720 56 174 6.1 11.3 0.00 0.00 0.00 57 1010.0
20260505061220 56 179 8.7 11.3 0.00 0.00 0.00 57 1010.0
20260505060720 56 191 6.1 10.4 0.00 0.00 0.00 58 1010.0
20260505060220 56 160 7.8 11.3 0.00 0.00 0.00 59 1010.0
20260505055722 56 191 7.0 9.6 0.00 0.00 0.00 59 1010.0
20260505055222 56 191 6.1 9.6 0.00 0.00 0.00 59 1010.0
20260505054720 56 183 6.1 10.4 0.00 0.00 0.00 60 1010.0
20260505054220 57 174 7.8 11.3 0.00 0.00 0.00 61 1010.0
20260505053720 57 173 7.8 10.4 0.00 0.00 0.00 60 1010.0
20260505053221 57 169 9.6 14.8 0.00 0.00 0.00 60 1010.0
20260505052721 57 169 7.0 11.3 0.06 0.00 0.00 61 1010.0
20260505052220 57 167 4.3 7.8 0.00 0.00 0.00 61 1010.0
20260505051720 57 134 5.2 8.7 0.00 0.00 0.00 61 1010.0
20260505051221 57 161 4.3 7.8 0.00 0.00 0.00 60 1010.0
20260505050720 58 133 6.1 9.6 0.00 0.00 0.00 60 1009.0
20260505050223 58 139 6.1 8.7 0.02 0.00 0.00 61 1009.0
20260505041720 62 177 6.1 11.3 0.00 0.00 0.00 44 1009.0
20260505041221 62 167 4.3 7.8 0.00 0.00 0.00 42 1009.0
20260505040720 62 156 5.2 7.0 0.00 0.00 0.00 42 1009.0
20260505040220 63 166 4.3 6.1 0.00 0.00 0.00 41 1008.0
20260505035720 63 199 6.1 7.8 0.00 0.00 0.00 40 1008.0
20260505035221 62 191 7.0 10.4 0.00 0.00 0.00 41 1008.0
20260505034720 62 191 7.0 9.6 0.00 0.00 0.00 41 1008.0
20260505034221 62 191 7.0 8.7 0.00 0.00 0.00 41 1008.0
20260505033720 62 176 5.2 9.6 0.00 0.00 0.00 42 1008.0
20260505033220 62 181 5.2 7.0 0.00 0.00 0.00 44 1008.0
20260505032721 63 185 5.2 8.7 0.00 0.00 0.00 45 1008.0
20260505032220 63 189 5.2 7.8 0.00 0.00 0.00 45 1008.0
20260505031720 63 183 6.1 10.4 0.00 0.00 0.00 46 1008.0
20260505031220 64 182 7.0 11.3 0.00 0.00 0.00 43 1008.0
20260505030721 64 185 7.0 9.6 0.00 0.00 0.00 40 1008.0
20260505030220 64 179 7.8 8.7 0.00 0.00 0.00 41 1008.0
20260505025720 64 169 6.1 10.4 0.00 0.00 0.00 41 1008.0
20260505025222 64 171 6.1 8.7 0.00 0.00 0.00 41 1008.0
20260505024720 64 175 5.2 9.6 0.00 0.00 0.00 42 1007.0
20260505024220 64 170 7.0 11.3 0.00 0.00 0.00 41 1007.0
20260505023720 64 176 5.2 8.7 0.00 0.00 0.00 41 1007.0
20260505023222 65 166 5.2 9.6 0.00 0.00 0.00 42 1007.0
20260505022724 65 182 7.0 9.6 0.00 0.00 0.00 42 1007.0
20260505022222 65 177 6.1 11.3 0.00 0.00 0.00 42 1007.0
20260505021721 65 181 4.3 8.7 0.00 0.00 0.00 39 1007.0
20260505021221 66 164 6.1 7.8 0.00 0.00 0.00 37 1007.0
20260505020720 66 159 7.8 10.4 0.00 0.00 0.00 37 1007.0
20260505020220 66 172 4.3 7.0 0.00 0.00 0.00 37 1007.0
20260505015721 66 167 7.0 11.3 0.00 0.00 0.00 36 1007.0
20260505015220 66 169 4.3 7.0 0.00 0.00 0.00 37 1007.0
20260505014720 66 158 8.7 11.3 0.00 0.00 0.00 37 1007.0
20260505014220 66 155 7.0 9.6 0.00 0.00 0.00 37 1007.0
20260505013720 66 158 7.8 9.6 0.00 0.00 0.00 37 1007.0
20260505013220 67 166 4.3 5.2 0.00 0.00 0.00 37 1007.0
20260505012720 68 157 7.8 9.6 0.00 0.00 0.00 36 1007.0
20260505012220 69 156 4.3 7.0 0.00 0.00 0.00 31 1007.0
20260505011720 69 217 2.6 3.5 0.00 0.00 0.00 30 1007.0
20260505011220 70 233 0.9 1.7 0.00 0.00 0.00 29 1007.0
20260505010723 70 66 1.7 1.7 0.00 0.00 0.00 29 1007.0
20260505010221 70 0 0.0 0.0 0.00 0.00 0.00 29 1007.0
20260505005725 70 96 1.7 1.7 0.00 0.00 0.00 30 1007.0
20260505005221 70 0 0.0 0.0 0.00 0.00 0.00 29 1007.0
20260505004721 70 0 0.0 0.0 0.00 0.00 0.00 29 1007.0
20260505004220 70 0 0.0 0.0 0.00 0.00 0.00 30 1007.0
20260505003720 69 0 0.0 0.0 0.00 0.00 0.00 31 1007.0
20260505003220 69 0 0.0 0.0 0.00 0.00 0.00 31 1007.0
20260505002720 69 0 0.0 0.0 0.00 0.00 0.00 30 1007.0
20260505002220 69 96 0.9 1.7 0.00 0.00 0.00 31 1007.0
20260505001720 69 142 3.5 4.3 0.00 0.00 0.00 31 1007.0
20260505001220 69 69 2.6 3.5 0.00 0.00 0.00 33 1007.0
20260505000720 68 78 2.6 3.5 0.00 0.00 0.00 32 1007.0
20260505000220 69 37 3.5 5.2 0.00 0.00 0.00 32 1007.0
20260504235720 69 26 0.0 0.9 0.00 0.00 0.00 31 1008.0
20260504235220 69 20 1.7 2.6 0.00 0.00 0.00 31 1008.0
20260504234720 69 10 1.7 3.5 0.00 0.00 0.00 31 1007.0
20260504234220 68 111 0.0 1.7 0.00 0.00 0.00 30 1007.0
20260504233720 68 66 4.3 5.2 0.00 0.00 0.00 31 1007.0
20260504233221 68 56 4.3 6.1 0.00 0.00 0.00 32 1008.0
20260504232720 67 7 4.3 7.0 0.00 0.00 0.00 34 1008.0
20260504232220 67 15 7.8 9.6 0.00 0.00 0.00 34 1008.0
20260504231720 67 14 5.2 9.6 0.00 0.00 0.00 34 1008.0
20260504231220 67 34 2.6 3.5 0.00 0.00 0.00 34 1008.0
20260504230720 67 31 7.0 12.2 0.00 0.00 0.00 34 1008.0
20260504230220 67 40 8.7 12.2 0.00 0.00 0.00 33 1008.0
20260504225720 68 35 7.0 8.7 0.00 0.00 0.00 34 1008.0
20260504225220 69 58 7.0 8.7 0.00 0.00 0.00 32 1008.0
20260504224720 71 70 7.0 8.7 0.00 0.00 0.00 31 1008.0
20260504224221 72 57 2.6 3.5 0.00 0.00 0.00 29 1007.0
20260504223721 72 348 1.7 1.7 0.00 0.00 0.00 27 1008.0
20260504223221 71 328 0.0 1.7 0.00 0.00 0.00 28 1007.0
20260504222720 71 254 2.6 5.2 0.00 0.00 0.00 28 1007.0
20260504222220 70 276 4.3 6.1 0.00 0.00 0.00 29 1007.0
20260504221720 70 303 3.5 6.1 0.00 0.00 0.00 31 1007.0
20260504221221 69 293 4.3 7.0 0.00 0.00 0.00 32 1007.0
20260504220720 69 285 5.2 6.1 0.00 0.00 0.00 32 1007.0
20260504220221 68 278 7.0 7.8 0.00 0.00 0.00 33 1008.0
20260504215721 68 269 7.8 9.6 0.00 0.00 0.00 34 1008.0
20260504215220 67 264 5.2 8.7 0.00 0.00 0.00 35 1008.0
20260504214720 67 279 5.2 7.8 0.00 0.00 0.00 36 1008.0
20260504214220 67 261 7.8 10.4 0.00 0.00 0.00 36 1008.0
20260504213720 67 264 7.8 9.6 0.00 0.00 0.00 36 1008.0
20260504213220 66 254 6.1 9.6 0.00 0.00 0.00 37 1008.0
20260504212720 66 250 8.7 12.2 0.00 0.00 0.00 38 1008.0
20260504212221 65 265 7.8 11.3 0.00 0.00 0.00 38 1008.0
20260504211722 66 262 9.6 14.8 0.00 0.00 0.00 38 1008.0
20260504211220 66 244 8.7 13.9 0.00 0.00 0.00 37 1008.0
20260504210721 67 257 9.6 13.9 0.00 0.00 0.00 36 1008.0
20260504210220 67 242 7.0 9.6 0.00 0.00 0.00 34 1008.0
20260504205721 67 253 8.7 10.4 0.00 0.00 0.00 33 1008.0
20260504205220 67 239 7.8 11.3 0.00 0.00 0.00 33 1008.0
20260504204721 68 245 7.8 10.4 0.00 0.00 0.00 32 1008.0
20260504204220 68 246 7.0 10.4 0.00 0.00 0.00 33 1008.0
20260504203720 68 256 7.8 11.3 0.00 0.00 0.00 33 1008.0
20260504203221 68 242 6.1 9.6 0.00 0.00 0.00 33 1008.0
20260504202721 69 256 8.7 11.3 0.00 0.00 0.00 33 1008.0
20260504202220 70 270 8.7 11.3 0.00 0.00 0.00 32 1008.0
20260504201721 71 222 4.3 7.0 0.00 0.00 0.00 31 1008.0
20260504201220 72 161 3.5 5.2 0.00 0.00 0.00 27 1008.0
20260504200720 73 145 0.0 2.6 0.00 0.00 0.00 27 1008.0
20260504200220 72 341 1.7 2.6 0.00 0.00 0.00 28 1008.0
20260504195722 71 145 0.0 0.0 0.00 0.00 0.00 28 1008.0
20260504195221 71 115 1.7 3.5 0.00 0.00 0.00 28 1008.0
20260504194720 71 145 4.3 6.1 0.00 0.00 0.00 28 1008.0
20260504194221 71 157 1.7 2.6 0.00 0.00 0.00 27 1008.0
20260504193721 71 104 0.9 2.6 0.00 0.00 0.00 29 1008.0
20260504193220 71 119 4.3 8.7 0.00 0.00 0.00 28 1008.0
20260504192725 71 50 3.5 5.2 0.00 0.00 0.00 28 1008.0
20260504192221 71 218 1.7 3.5 0.00 0.00 0.00 28 1008.0
20260504191720 71 158 2.6 4.3 0.00 0.00 0.00 28 1008.0
20260504191220 70 167 5.2 7.8 0.00 0.00 0.00 29 1008.0
20260504190721 70 116 4.3 7.8 0.00 0.00 0.00 29 1009.0
20260504190221 70 117 3.5 5.2 0.00 0.00 0.00 29 1009.0
20260504185723 71 165 4.3 5.2 0.00 0.00 0.00 29 1009.0
20260504185221 71 138 3.5 7.0 0.00 0.00 0.00 30 1009.0
20260504184720 71 134 1.7 2.6 0.00 0.00 0.00 29 1009.0
20260504184222 71 128 5.2 7.8 0.00 0.00 0.00 29 1009.0
20260504183721 71 162 5.2 7.8 0.00 0.00 0.00 29 1008.0
20260504183221 71 132 5.2 7.0 0.00 0.00 0.00 29 1009.0
20260504182720 70 182 4.3 7.8 0.00 0.00 0.00 30 1009.0
20260504182222 70 146 6.1 7.8 0.00 0.00 0.00 30 1009.0
20260504181720 71 155 5.2 8.7 0.00 0.00 0.00 30 1009.0
20260504181222 70 166 4.3 7.8 0.00 0.00 0.00 30 1009.0
20260504180721 70 157 4.3 7.0 0.00 0.00 0.00 31 1009.0
20260504180221 70 144 6.1 9.6 0.00 0.00 0.00 31 1009.0
20260504175235 69 149 4.3 7.0 0.00 0.00 0.00 32 1009.0
20260504174721 69 154 7.0 9.6 0.00 0.00 0.00 33 1009.0
20260504174221 69 152 6.1 8.7 0.00 0.00 0.00 32 1009.0
20260504173724 68 173 7.0 9.6 0.00 0.00 0.00 34 1009.0
20260504173221 69 154 7.0 8.7 0.00 0.00 0.00 33 1009.0
20260504172721 68 179 4.3 7.8 0.00 0.00 0.00 33 1009.0
20260504172220 68 161 7.8 11.3 0.00 0.00 0.00 33 1009.0
20260504171721 68 159 6.1 7.8 0.00 0.00 0.00 34 1009.0
20260504171221 68 129 3.5 6.1 0.00 0.00 0.00 34 1009.0
20260504170721 68 133 7.0 8.7 0.00 0.00 0.00 34 1009.0
20260504170221 68 144 6.1 8.7 0.00 0.00 0.00 33 1009.0
20260504160220 63 150 5.2 8.7 0.00 0.00 0.00 44 1010.0
20260504150721 62 162 5.2 7.8 0.00 0.00 0.00 46 1010.0
20260504150221 62 162 5.2 7.0 0.00 0.00 0.00 46 1010.0
20260504141226 61 156 4.3 7.0 0.00 0.00 0.00 50 1010.0
20260504140722 60 141 3.5 7.0 0.00 0.00 0.00 50 1010.0
20260504140222 60 160 6.1 7.8 0.00 0.00 0.00 49 1010.0
20260504130721 58 177 5.2 6.1 0.00 0.00 0.00 50 1010.0
20260504130222 58 190 7.0 7.8 0.00 0.00 0.00 51 1010.0
20260504120221 58 160 4.3 5.2 0.00 0.00 0.00 52 1011.0